Location: Bittelbronn
(48.4454°N, 8.5870°E)
Time: 00:07:09
(UTC+00:00)

Meteor 2-5 Rocket - Pass Details

Date: 15 August 2024
Orbit: 833 x 910 km, 81.2° (Epoch: 07 September)

Event Time Altitude Azimuth Distance (km) Brightness Sun altitude
Rises 00:09:48 0° 358° (N) 3,469 8.1 -27.0°
Reaches altitude 10° 00:13:06 10° 17° (NNE) 2,542 7.2 -26.9°
Maximum altitude 00:16:56 18° 59° (ENE) 2,045 6.1 -26.7°
Drops below altitude 10° 00:20:48 10° 101° (E) 2,565 6.2 -26.6°
Enters shadow 00:23:10 - 116° (ESE) 3,212 6.6 -26.5°
